STARLINK-35191 (65594 NORAD) Tracking and Keplerian Element Data

This shows tracking and keplerian element data for the satellite.

Feedback or suggestion? Click here.




ElementValue
Catalog65594
NameSTARLINK-35191
Epoch Orbit593
Epoch Day354.25003472
Epoch Year2025
RAAN60.2541
Inclination97.6038
Eccentricity0.000155
Argument of Perigee91.7649
Mean Anonmoly156.5055
Mean Motion15.30327944
Decay Rate-0.02625934
L11 65594U 25207C 25354.25003472 -.02625934 00000+0 -10020+0 0 9991
L22 65594 97.6038 60.2541 0001550 91.7649 156.5055 15.30327944 5931



Live tracking and technical data element details for STARLINK-35191 (NORAD 65594). STARLINK-35191 can be tracked NOW for your location showing map with azimuth and elevation plus other details from your city location.







IsCatalogInMostPopularTable: catalog: 65594, numindb: 5
Update: records affected: 1



GetName: 65594 STARLINK-35191

Hit Count: updated at: Tue, 10 Feb 2026 03:52:56 GMT